Dundee, United Kingdom

2:16 PM GMT on February 14, 2016 (GMT +0000)
Dundee

Weather History for EGPN - May, 2013

Change the Weather History Date:

Monday, May 13, 2013

  Actual Average Record
Temperature  
Mean Temperature 45 °F -  
Max Temperature 51 °F 58 °F 60 °F (2004)
Min Temperature 39 °F 49 °F 39 °F (2013)
Degree Days  
Heating Degree Days 20    
Moisture  
Dew Point 40 °F    
Average Humidity 76    
Maximum Humidity 87    
Minimum Humidity 58    
Precipitation  
Precipitation 0.00 in - - ()
Sea Level Pressure  
Sea Level Pressure 29.46 in    
Wind  
Wind Speed 21 mph ()    
Max Wind Speed 36 mph    
Max Gust Speed 50 mph    
Visibility 6.2 miles    
Events Rain    
Averages and records for this station are not official NWS values.
T = Trace of Precipitation, MM = Missing Value Source: Averaged Metar Reports

Daily Weather History Graph

Daily Weather History Graph

Search for Another Location

Airport or City:

Trip Planner

Search our weather history database for the weather conditions in past years. The results will help you decide how hot, cold, wet, or windy it might be!

Date:

Astronomy

May. 13, 2013 Rise Set
Actual Time 5:00 AM BST 9:17 PM BST
Civil Twilight 4:10 AM BST 10:08 PM BST
Nautical Twilight 2:52 AM BST 11:27 PM BST
Astronomical Twilight 1:40 AM BST 12:35 AM BST
Moon 7:28 AM BST (5/13) No Moon Set
Length of Visible Light 17h 57m
Length of Day
16h 17m
Waxing Crescent, 11% of the Moon is Illuminated
May 13
Waxing Crescent
May 18
First Quarter
May 25
Full
May 31
Last Quarter
Jun 8
New

Hourly Weather History & Observations

Time (BST) Temp. Windchill Dew Point Humidity Pressure Visibility Wind Dir Wind Speed Gust Speed Precip Events Conditions
5:50 AM 42.8 °F 33.8 °F 39.2 °F 87% 29.53 in 6.2 mi WSW 21.9 mph - N/A   Partly Cloudy
6:20 AM 39.2 °F 31.6 °F 35.6 °F 87% 29.53 in 6.2 mi West 12.7 mph - N/A   Partly Cloudy
6:50 AM 41.0 °F 33.9 °F 35.6 °F 81% 29.50 in 6.2 mi West 12.7 mph - N/A   Partly Cloudy
7:20 AM 42.8 °F 34.8 °F 37.4 °F 81% 29.53 in 6.2 mi WSW 17.3 mph - N/A   Partly Cloudy
7:50 AM 42.8 °F 35.4 °F 37.4 °F 81% 29.50 in 6.2 mi WSW 15.0 mph - N/A   Scattered Clouds
8:20 AM 44.6 °F 36.6 °F 39.2 °F 81% 29.50 in 6.2 mi WSW 19.6 mph - N/A   Scattered Clouds
8:50 AM 46.4 °F 37.9 °F 37.4 °F 71% 29.50 in 6.2 mi WSW 25.3 mph - N/A   Scattered Clouds
9:20 AM 44.6 °F 35.5 °F 39.2 °F 81% 29.50 in 6.2 mi WSW 25.3 mph - N/A   Scattered Clouds
9:50 AM 46.4 °F 39.0 °F 41.0 °F 81% 29.50 in 6.2 mi WSW 19.6 mph - N/A   Scattered Clouds
10:20 AM 46.4 °F 37.9 °F 39.2 °F 76% 29.47 in 6.2 mi WSW 25.3 mph - N/A   Scattered Clouds
10:50 AM 46.4 °F 37.7 °F 41.0 °F 81% 29.50 in 6.2 mi WSW 26.5 mph - N/A Rain Rain
11:20 AM 48.2 °F - 41.0 °F 76% 29.47 in 6.2 mi WSW 26.5 mph - N/A   Scattered Clouds
11:50 AM 46.4 °F 37.0 °F 41.0 °F 81% 29.47 in 6.2 mi WSW 31.1 mph 42.6 mph N/A Rain Rain
12:20 PM 50.0 °F - 42.8 °F 76% 29.47 in 6.2 mi WSW 28.8 mph - N/A   Partly Cloudy
12:50 PM 50.0 °F - 41.0 °F 71% 29.44 in 6.2 mi WSW 32.2 mph - N/A   Partly Cloudy
1:20 PM 48.2 °F - 42.8 °F 82% 29.47 in 6.2 mi WSW 35.7 mph - N/A   Partly Cloudy
1:50 PM 48.2 °F - 42.8 °F 82% 29.44 in 6.2 mi WSW 24.2 mph - N/A   Partly Cloudy
2:20 PM 50.0 °F - 39.2 °F 66% 29.44 in 6.2 mi WSW 27.6 mph - N/A   Scattered Clouds
2:50 PM 50.0 °F - 41.0 °F 71% 29.44 in 6.2 mi WSW 26.5 mph - N/A   Scattered Clouds
3:20 PM 51.8 °F - 37.4 °F 58% 29.44 in 6.2 mi WSW 31.1 mph - N/A   Scattered Clouds
3:50 PM 46.4 °F 36.7 °F 42.8 °F 87% 29.44 in 6.2 mi WSW 33.4 mph 49.5 mph N/A Rain Heavy Rain Showers
4:20 PM 50.0 °F - 41.0 °F 71% 29.44 in 6.2 mi WSW 23.0 mph - N/A   Scattered Clouds
4:50 PM 50.0 °F - 41.0 °F 71% 29.42 in 6.2 mi WSW 26.5 mph - N/A   Scattered Clouds
5:20 PM 50.0 °F - 39.2 °F 66% 29.42 in 6.2 mi WSW 25.3 mph - N/A   Scattered Clouds
5:50 PM 50.0 °F - 39.2 °F 66% 29.42 in 6.2 mi WSW 28.8 mph - N/A   Scattered Clouds
6:20 PM 50.0 °F - 39.2 °F 66% 29.42 in 6.2 mi WSW 28.8 mph - N/A   Scattered Clouds
6:50 PM 50.0 °F - 39.2 °F 66% 29.42 in 6.2 mi WSW 28.8 mph - N/A   Partly Cloudy
7:20 PM 50.0 °F - 39.2 °F 66% 29.42 in 6.2 mi WSW 27.6 mph - N/A   Partly Cloudy
7:50 PM 48.2 °F - 39.2 °F 71% 29.42 in 6.2 mi WSW 25.3 mph - N/A   Partly Cloudy
8:20 PM 48.2 °F - 41.0 °F 76% 29.42 in 6.2 mi WSW 24.2 mph - N/A   Partly Cloudy
8:50 PM 48.2 °F - 41.0 °F 76% 29.42 in 6.2 mi SW 23.0 mph - N/A   Partly Cloudy
9:20 PM 46.4 °F 38.3 °F 41.0 °F 81% 29.42 in 6.2 mi SW 23.0 mph - N/A   Partly Cloudy
9:50 PM 46.4 °F 38.1 °F 41.0 °F 81% 29.39 in 6.2 mi SW 24.2 mph - N/A   Partly Cloudy